| time (UTC) | temp C | wind direction | speed KPH | gust KPH | rain 1hr cm | rain 24hr cm | rain mn cm | humidity % | barometer mb |
| 20260904092638 | 18 | 180 | 0.0 | 0.0 | 0.00 | 0.91 | 0.91 | 95 | 1014.6 |
| 20260904092134 | 18 | 180 | 0.0 | 0.0 | 0.00 | 0.91 | 0.91 | 95 | 1014.7 |
| 20260904091630 | 18 | 184 | 0.0 | 0.0 | 0.00 | 0.91 | 0.91 | 95 | 1014.6 |
| 20260904091129 | 17 | 180 | 0.0 | 0.0 | 0.00 | 0.91 | 0.91 | 95 | 1014.6 |
| 20260904090625 | 17 | 179 | 0.0 | 0.0 | 0.00 | 0.91 | 0.91 | 95 | 1014.7 |
| 20260904090120 | 17 | 179 | 0.0 | 0.0 | 0.00 | 0.91 | 0.91 | 95 | 1014.5 |
| 20260904085615 | 17 | 179 | 0.0 | 0.0 | 0.00 | 0.91 | 0.91 | 95 | 1014.7 |
| 20260904085114 | 17 | 179 | 0.0 | 0.0 | 0.00 | 0.91 | 0.91 | 95 | 1014.6 |
| 20260904084610 | 18 | 179 | 0.0 | 0.0 | 0.00 | 0.91 | 0.91 | 95 | 1014.6 |
| 20260904084107 | 17 | 179 | 0.0 | 0.0 | 0.00 | 0.91 | 0.91 | 95 | 1014.4 |
| 20260904083603 | 17 | 179 | 0.0 | 0.0 | 0.00 | 0.91 | 0.91 | 95 | 1014.6 |
| 20260904083058 | 17 | 179 | 0.0 | 0.0 | 0.00 | 0.91 | 0.91 | 95 | 1014.4 |
| 20260904082553 | 17 | 177 | 0.0 | 0.0 | 0.00 | 0.91 | 0.91 | 95 | 1014.3 |
| 20260904082048 | 17 | 135 | 0.0 | 0.0 | 0.00 | 0.91 | 0.91 | 95 | 1014.3 |
| 20260904081543 | 18 | 148 | 0.0 | 0.0 | 0.00 | 0.91 | 0.91 | 95 | 1013.8 |
| 20260904081038 | 18 | 162 | 0.0 | 0.0 | 0.00 | 0.91 | 0.91 | 95 | 1013.9 |
| 20260904080534 | 18 | 167 | 0.0 | 0.0 | 0.00 | 0.91 | 0.91 | 95 | 1013.8 |
| 20260904080030 | 18 | 149 | 0.0 | 0.0 | 0.00 | 0.91 | 0.91 | 95 | 1014.0 |
| 20260904075526 | 18 | 153 | 0.0 | 0.0 | 0.00 | 0.91 | 0.91 | 95 | 1013.8 |
| 20260904075021 | 18 | 153 | 0.0 | 0.0 | 0.00 | 0.91 | 0.91 | 95 | 1013.6 |
| 20260904074515 | 17 | 153 | 0.0 | 0.0 | 0.00 | 0.91 | 0.91 | 95 | 1013.8 |
| 20260904074015 | 17 | 117 | 0.0 | 0.0 | 0.00 | 0.91 | 0.91 | 95 | 1013.8 |
| 20260904073510 | 18 | 161 | 0.0 | 0.0 | 0.00 | 0.91 | 0.91 | 95 | 1013.7 |
| 20260904073006 | 18 | 161 | 0.0 | 0.0 | 0.00 | 0.91 | 0.91 | 95 | 1013.9 |
| 20260904072502 | 18 | 153 | 0.0 | 0.0 | 0.00 | 0.91 | 0.91 | 95 | 1013.5 |
| 20260904071956 | 18 | 160 | 0.0 | 0.0 | 0.00 | 0.91 | 0.91 | 95 | 1013.7 |
| 20260904071451 | 18 | 174 | 0.0 | 0.0 | 0.00 | 0.91 | 0.91 | 95 | 1013.7 |
| 20260904070946 | 18 | 163 | 0.0 | 0.0 | 0.00 | 0.91 | 0.91 | 95 | 1013.7 |
| 20260904070445 | 18 | 198 | 0.0 | 1.6 | 0.00 | 0.91 | 0.91 | 95 | 1013.6 |
| 20260904065940 | 18 | 198 | 0.0 | 0.0 | 0.00 | 0.91 | 0.91 | 95 | 1013.7 |
| 20260904065436 | 18 | 187 | 0.0 | 0.0 | 0.00 | 0.91 | 0.91 | 95 | 1013.4 |
| 20260904064931 | 18 | 160 | 0.0 | 0.0 | 0.00 | 0.91 | 0.91 | 95 | 1013.4 |
| 20260904064427 | 18 | 117 | 1.6 | 1.6 | 0.00 | 0.91 | 0.91 | 95 | 1013.6 |
| 20260904063922 | 18 | 164 | 0.0 | 0.0 | 0.00 | 0.91 | 0.91 | 95 | 1013.5 |
| 20260904063419 | 19 | 201 | 0.0 | 0.0 | 0.00 | 0.91 | 0.91 | 95 | 1013.6 |
| 20260904062913 | 19 | 1 | 0.0 | 1.6 | 0.00 | 0.91 | 0.91 | 95 | 1013.7 |
| 20260904062409 | 19 | 184 | 0.0 | 0.0 | 0.00 | 0.91 | 0.91 | 95 | 1013.7 |
| 20260904061905 | 19 | 161 | 0.0 | 0.0 | 0.00 | 0.91 | 0.91 | 95 | 1013.5 |
| 20260904061401 | 20 | 183 | 0.0 | 0.0 | 0.00 | 0.91 | 0.91 | 95 | 1013.7 |
| 20260904060857 | 20 | 189 | 0.0 | 0.0 | 0.00 | 0.91 | 0.91 | 95 | 1013.9 |
| 20260904060353 | 20 | 191 | 0.0 | 0.0 | 0.00 | 0.91 | 0.91 | 95 | 1013.7 |
| 20260904055848 | 20 | 113 | 1.6 | 1.6 | 0.00 | 0.91 | 0.91 | 95 | 1013.8 |
| 20260904055343 | 20 | 188 | 0.0 | 0.0 | 0.00 | 0.91 | 0.91 | 95 | 1014.1 |
| 20260904054838 | 20 | 182 | 0.0 | 0.0 | 0.00 | 0.91 | 0.91 | 95 | 1014.1 |
| 20260904054334 | 20 | 178 | 0.0 | 0.0 | 0.00 | 0.91 | 0.91 | 95 | 1013.9 |
| 20260904053829 | 20 | 178 | 0.0 | 0.0 | 0.00 | 0.91 | 0.91 | 95 | 1014.2 |
| 20260904053328 | 20 | 171 | 0.0 | 0.0 | 0.00 | 0.91 | 0.91 | 95 | 1014.0 |
| 20260904052825 | 20 | 169 | 0.0 | 0.0 | 0.00 | 0.91 | 0.91 | 95 | 1014.2 |
| 20260904052321 | 20 | 167 | 0.0 | 0.0 | 0.00 | 0.91 | 0.91 | 95 | 1014.1 |
| 20260904051812 | 20 | 162 | 0.0 | 0.0 | 0.00 | 0.91 | 0.91 | 95 | 1014.2 |
| 20260904051307 | 20 | 162 | 0.0 | 0.0 | 0.00 | 0.91 | 0.91 | 95 | 1014.3 |
| 20260904050802 | 20 | 164 | 0.0 | 0.0 | 0.00 | 0.91 | 0.91 | 95 | 1014.3 |
| 20260904050258 | 20 | 191 | 0.0 | 0.0 | 0.00 | 0.91 | 0.91 | 95 | 1014.3 |
| 20260904045752 | 20 | 191 | 0.0 | 0.0 | 0.00 | 0.91 | 0.91 | 95 | 1014.3 |
| 20260904045247 | 20 | 182 | 0.0 | 0.0 | 0.13 | 0.91 | 0.91 | 95 | 1014.3 |
| 20260904044742 | 20 | 201 | 0.0 | 0.0 | 0.61 | 0.91 | 0.91 | 95 | 1014.4 |
| 20260904044239 | 20 | 105 | 3.2 | 3.2 | 0.79 | 0.89 | 0.89 | 95 | 1014.5 |
| 20260904043735 | 20 | 185 | 0.0 | 0.0 | 0.79 | 0.81 | 0.81 | 95 | 1014.6 |
| 20260904043231 | 21 | 234 | 1.6 | 1.6 | 1.37 | 0.76 | 0.76 | 95 | 1014.6 |
| 20260904042726 | 21 | 220 | 0.0 | 1.6 | 1.80 | 0.69 | 0.69 | 95 | 1014.7 |
| 20260904042223 | 21 | 297 | 4.8 | 4.8 | 1.37 | 0.51 | 0.51 | 95 | 1015.1 |
| 20260904041722 | 21 | 33 | 1.6 | 3.2 | 1.37 | 0.38 | 0.38 | 95 | 1014.8 |
| 20260904041218 | 21 | 184 | 0.0 | 0.0 | 1.55 | 0.28 | 0.28 | 95 | 1014.8 |
| 20260904040714 | 21 | 248 | 1.6 | 3.2 | 1.19 | 0.15 | 0.15 | 95 | 1014.6 |
| 20260904040210 | 21 | 285 | 1.6 | 3.2 | 0.89 | 0.03 | 0.03 | 95 | 1014.5 |
| 20260904035705 | 21 | 5 | 3.2 | 3.2 | 0.48 | 1.12 | 1.12 | 95 | 1014.3 |
| 20260904035201 | 21 | 206 | 1.6 | 3.2 | 0.18 | 1.07 | 1.07 | 95 | 1014.5 |
| 20260904034659 | 21 | 191 | 0.0 | 0.0 | 0.00 | 1.04 | 1.04 | 95 | 1014.3 |
| 20260904034155 | 21 | 166 | 0.0 | 0.0 | 0.00 | 1.04 | 1.04 | 95 | 1014.0 |
| 20260904033651 | 21 | 186 | 0.0 | 0.0 | 0.00 | 1.04 | 1.04 | 95 | 1014.2 |
| 20260904033148 | 21 | 176 | 0.0 | 0.0 | 0.00 | 1.04 | 1.04 | 95 | 1014.1 |
| 20260904032643 | 21 | 163 | 0.0 | 0.0 | 0.00 | 1.04 | 1.04 | 95 | 1014.2 |
| 20260904032142 | 21 | 173 | 0.0 | 0.0 | 0.00 | 1.04 | 1.04 | 95 | 1014.1 |
| 20260904031642 | 21 | 177 | 0.0 | 0.0 | 0.00 | 1.04 | 1.04 | 95 | 1014.1 |
| 20260904031138 | 21 | 183 | 0.0 | 0.0 | 0.00 | 1.04 | 1.04 | 95 | 1014.2 |
| 20260904030634 | 21 | 183 | 0.0 | 0.0 | 0.00 | 1.04 | 1.04 | 95 | 1014.2 |
| 20260904030128 | 21 | 151 | 0.0 | 0.0 | 0.00 | 1.04 | 1.04 | 95 | 1014.1 |
| 20260904025624 | 21 | 173 | 0.0 | 0.0 | 0.00 | 1.04 | 1.04 | 95 | 1014.3 |
| 20260904025119 | 21 | 156 | 0.0 | 0.0 | 0.00 | 1.04 | 1.04 | 95 | 1014.2 |
| 20260904024614 | 21 | 159 | 0.0 | 0.0 | 0.00 | 1.04 | 1.04 | 95 | 1014.1 |
| 20260904024110 | 21 | 174 | 0.0 | 0.0 | 0.00 | 1.04 | 1.04 | 95 | 1014.0 |
| 20260904023606 | 21 | 182 | 0.0 | 0.0 | 0.00 | 1.04 | 1.04 | 95 | 1014.3 |
| 20260904023102 | 21 | 182 | 0.0 | 0.0 | 0.00 | 1.04 | 1.04 | 95 | 1014.5 |
| 20260904022602 | 21 | 182 | 0.0 | 0.0 | 0.00 | 1.04 | 1.04 | 95 | 1014.3 |
| 20260904022059 | 21 | 182 | 0.0 | 0.0 | 0.00 | 1.04 | 1.04 | 95 | 1014.3 |
| 20260904021554 | 21 | 193 | 0.0 | 0.0 | 0.00 | 1.04 | 1.04 | 95 | 1014.4 |
| 20260904021049 | 21 | 193 | 0.0 | 0.0 | 0.13 | 1.04 | 1.04 | 95 | 1014.3 |
| 20260904020544 | 21 | 204 | 0.0 | 0.0 | 0.13 | 1.04 | 1.04 | 95 | 1014.8 |
| 20260904020039 | 21 | 188 | 0.0 | 0.0 | 0.00 | 1.02 | 1.02 | 95 | 1014.6 |
| 20260904015533 | 21 | 190 | 0.0 | 0.0 | 0.00 | 1.02 | 1.02 | 95 | 1014.7 |
| 20260904015033 | 21 | 191 | 0.0 | 0.0 | 0.00 | 1.02 | 1.02 | 95 | 1014.8 |
| 20260904014526 | 21 | 191 | 0.0 | 0.0 | 0.00 | 1.02 | 1.02 | 95 | 1014.6 |
| 20260904014022 | 21 | 189 | 0.0 | 0.0 | 0.00 | 1.02 | 1.02 | 95 | 1014.6 |
| 20260904013518 | 21 | 190 | 0.0 | 0.0 | 0.00 | 1.02 | 1.02 | 95 | 1014.8 |
| 20260904013015 | 21 | 186 | 0.0 | 0.0 | 0.00 | 1.02 | 1.02 | 95 | 1014.6 |
| 20260904012514 | 21 | 186 | 0.0 | 0.0 | 0.00 | 1.02 | 1.02 | 95 | 1014.7 |
| 20260904012009 | 21 | 190 | 0.0 | 0.0 | 0.00 | 1.02 | 1.02 | 95 | 1014.6 |
| 20260904011503 | 21 | 186 | 0.0 | 0.0 | 0.00 | 1.02 | 1.02 | 95 | 1014.9 |
| 20260904010959 | 21 | 189 | 0.0 | 0.0 | 0.00 | 1.02 | 1.02 | 95 | 1014.8 |
| 20260904010454 | 21 | 186 | 0.0 | 0.0 | 0.00 | 1.02 | 1.02 | 95 | 1014.8 |
| 20260904005949 | 21 | 189 | 0.0 | 0.0 | 0.00 | 1.02 | 1.02 | 95 | 1014.8 |
| 20260904005445 | 21 | 189 | 0.0 | 0.0 | 0.00 | 1.02 | 1.02 | 95 | 1014.7 |
| 20260904004939 | 21 | 191 | 0.0 | 0.0 | 0.00 | 1.02 | 1.02 | 95 | 1014.8 |
| 20260904004436 | 21 | 186 | 0.0 | 0.0 | 0.00 | 1.02 | 1.02 | 95 | 1014.6 |
| 20260904003936 | 21 | 198 | 0.0 | 0.0 | 0.00 | 1.02 | 1.02 | 95 | 1014.5 |
| 20260904003432 | 21 | 198 | 0.0 | 0.0 | 0.00 | 1.02 | 1.02 | 95 | 1014.4 |
| 20260904002927 | 21 | 214 | 0.0 | 0.0 | 0.00 | 1.02 | 1.02 | 95 | 1014.4 |
| 20260904002423 | 21 | 197 | 0.0 | 0.0 | 0.00 | 1.02 | 1.02 | 95 | 1014.5 |
| 20260904001922 | 21 | 196 | 0.0 | 0.0 | 0.00 | 1.02 | 1.02 | 95 | 1014.3 |
| 20260904001418 | 21 | 196 | 0.0 | 0.0 | 0.00 | 1.02 | 1.02 | 95 | 1014.3 |
| 20260904000912 | 21 | 196 | 0.0 | 0.0 | 0.00 | 1.02 | 1.02 | 95 | 1014.0 |
| 20260904000412 | 21 | 110 | 3.2 | 3.2 | 0.00 | 1.02 | 1.02 | 95 | 1014.4 |
| 20260903235907 | 21 | 164 | 0.0 | 0.0 | 0.00 | 1.02 | 1.02 | 95 | 1014.2 |
| 20260903235403 | 21 | 180 | 0.0 | 0.0 | 0.00 | 1.02 | 1.02 | 95 | 1014.2 |
| 20260903234902 | 21 | 180 | 0.0 | 0.0 | 0.00 | 1.02 | 1.02 | 95 | 1014.2 |
| 20260903234358 | 21 | 181 | 0.0 | 0.0 | 0.00 | 1.02 | 1.02 | 95 | 1014.2 |
| 20260903233854 | 21 | 191 | 0.0 | 0.0 | 0.00 | 1.02 | 1.02 | 95 | 1014.3 |
| 20260903233350 | 21 | 190 | 0.0 | 0.0 | 0.00 | 1.02 | 1.02 | 95 | 1014.4 |
| 20260903232849 | 21 | 199 | 0.0 | 0.0 | 0.00 | 1.02 | 1.02 | 95 | 1014.2 |
| 20260903232345 | 21 | 190 | 0.0 | 0.0 | 0.00 | 1.02 | 1.02 | 95 | 1014.4 |
| 20260903231844 | 22 | 190 | 0.0 | 0.0 | 0.00 | 1.02 | 1.02 | 95 | 1014.4 |
| 20260903231340 | 22 | 199 | 0.0 | 0.0 | 0.00 | 1.02 | 1.02 | 94 | 1014.3 |
| 20260903230835 | 22 | 199 | 0.0 | 0.0 | 0.00 | 1.02 | 1.02 | 94 | 1014.3 |
| 20260903230330 | 22 | 185 | 0.0 | 0.0 | 0.00 | 1.02 | 1.02 | 93 | 1014.3 |
| 20260903225826 | 22 | 184 | 0.0 | 0.0 | 0.00 | 1.02 | 1.02 | 93 | 1014.1 |
| 20260903225322 | 22 | 184 | 0.0 | 0.0 | 0.00 | 1.02 | 1.02 | 92 | 1014.2 |
| 20260903224818 | 22 | 194 | 1.6 | 1.6 | 0.00 | 1.02 | 1.02 | 91 | 1014.2 |
| 20260903224314 | 22 | 128 | 1.6 | 1.6 | 0.18 | 1.02 | 1.02 | 90 | 1014.0 |
| 20260903223810 | 22 | 132 | 1.6 | 1.6 | 1.85 | 1.02 | 1.02 | 89 | 1013.9 |
| 20260903223308 | 23 | 254 | 8.0 | 11.3 | 1.80 | 0.99 | 0.99 | 87 | 1014.1 |
| 20260903222803 | 25 | 308 | 4.8 | 8.0 | 0.13 | 0.71 | 0.71 | 85 | 1014.0 |
| 20260903222305 | 26 | 11 | 3.2 | 3.2 | 0.00 | 0.69 | 0.69 | 81 | 1013.6 |
| 20260903221757 | 26 | 202 | 0.0 | 1.6 | 0.00 | 0.69 | 0.69 | 78 | 1013.5 |
| 20260903221256 | 26 | 202 | 0.0 | 0.0 | 0.00 | 0.69 | 0.69 | 77 | 1013.6 |
| 20260903220754 | 27 | 176 | 1.6 | 1.6 | 0.00 | 0.69 | 0.69 | 76 | 1013.7 |
| 20260903220249 | 27 | 176 | 0.0 | 0.0 | 0.00 | 0.69 | 0.69 | 75 | 1013.5 |
| 20260903215742 | 27 | 176 | 0.0 | 0.0 | 0.00 | 0.69 | 0.69 | 74 | 1013.8 |
| 20260903215238 | 27 | 168 | 0.0 | 0.0 | 0.00 | 0.69 | 0.69 | 75 | 1013.7 |
| 20260903214736 | 27 | 143 | 1.6 | 1.6 | 0.00 | 0.69 | 0.69 | 74 | 1013.6 |
| 20260903214232 | 28 | 198 | 0.0 | 0.0 | 0.00 | 0.69 | 0.69 | 74 | 1013.5 |
| 20260903213726 | 27 | 200 | 0.0 | 0.0 | 0.00 | 0.69 | 0.69 | 73 | 1013.8 |
| 20260903213222 | 27 | 194 | 1.6 | 1.6 | 0.00 | 0.69 | 0.69 | 73 | 1013.7 |
| 20260903212718 | 27 | 196 | 1.6 | 1.6 | 0.00 | 0.69 | 0.69 | 74 | 1013.5 |
| 20260903212214 | 27 | 216 | 3.2 | 3.2 | 0.00 | 0.69 | 0.69 | 74 | 1013.8 |
| 20260903211707 | 27 | 207 | 1.6 | 1.6 | 0.00 | 0.69 | 0.69 | 74 | 1013.7 |
| 20260903211204 | 27 | 183 | 0.0 | 0.0 | 0.00 | 0.69 | 0.69 | 76 | 1013.7 |
| 20260903210700 | 27 | 215 | 1.6 | 3.2 | 0.00 | 0.69 | 0.69 | 76 | 1013.6 |
| 20260903210156 | 26 | 167 | 1.6 | 1.6 | 0.00 | 0.69 | 0.69 | 77 | 1014.0 |
| 20260903205655 | 26 | 109 | 1.6 | 1.6 | 0.00 | 0.69 | 0.69 | 76 | 1014.0 |
| 20260903205154 | 27 | 196 | 0.0 | 1.6 | 0.00 | 0.69 | 0.69 | 76 | 1013.8 |
| 20260903204650 | 26 | 255 | 3.2 | 3.2 | 0.00 | 0.69 | 0.69 | 76 | 1014.1 |
| 20260903204146 | 26 | 203 | 0.0 | 1.6 | 0.00 | 0.69 | 0.69 | 76 | 1014.2 |
| 20260903203641 | 26 | 248 | 3.2 | 3.2 | 0.00 | 0.69 | 0.69 | 74 | 1014.1 |
| 20260903203136 | 26 | 173 | 1.6 | 1.6 | 0.00 | 0.69 | 0.69 | 75 | 1014.1 |
| 20260903202631 | 27 | 316 | 4.8 | 4.8 | 0.00 | 0.69 | 0.69 | 74 | 1014.1 |
| 20260903202126 | 27 | 227 | 1.6 | 3.2 | 0.00 | 0.69 | 0.69 | 73 | 1014.0 |
| 20260903201621 | 27 | 184 | 1.6 | 1.6 | 0.00 | 0.69 | 0.69 | 72 | 1014.1 |
| 20260903201120 | 27 | 316 | 4.8 | 8.0 | 0.00 | 0.69 | 0.69 | 72 | 1014.2 |
| 20260903200615 | 27 | 355 | 6.4 | 9.7 | 0.00 | 0.69 | 0.69 | 71 | 1014.2 |
| 20260903200110 | 27 | 313 | 4.8 | 4.8 | 0.00 | 0.69 | 0.69 | 72 | 1014.3 |
| 20260903195606 | 27 | 186 | 0.0 | 0.0 | 0.00 | 0.69 | 0.69 | 72 | 1014.2 |
| 20260903195102 | 27 | 216 | 3.2 | 3.2 | 0.00 | 0.69 | 0.69 | 73 | 1014.1 |
| 20260903194557 | 26 | 203 | 0.0 | 0.0 | 0.00 | 0.69 | 0.69 | 77 | 1013.9 |
| 20260903194052 | 26 | 171 | 0.0 | 0.0 | 0.00 | 0.69 | 0.69 | 76 | 1014.0 |
| 20260903193548 | 26 | 146 | 0.0 | 0.0 | 0.00 | 0.69 | 0.69 | 76 | 1014.1 |
| 20260903193043 | 26 | 14 | 4.8 | 8.0 | 0.00 | 0.69 | 0.69 | 75 | 1014.3 |
| 20260903192540 | 27 | 89 | 3.2 | 4.8 | 0.00 | 0.69 | 0.69 | 74 | 1014.3 |
| 20260903192034 | 28 | 218 | 1.6 | 1.6 | 0.00 | 0.69 | 0.69 | 72 | 1013.9 |
| 20260903191531 | 27 | 255 | 1.6 | 1.6 | 0.00 | 0.69 | 0.69 | 72 | 1014.3 |
| 20260903191025 | 27 | 232 | 1.6 | 3.2 | 0.00 | 0.69 | 0.69 | 73 | 1014.5 |
| 20260903190525 | 27 | 305 | 3.2 | 3.2 | 0.00 | 0.69 | 0.69 | 71 | 1014.5 |
| 20260903190024 | 28 | 289 | 4.8 | 4.8 | 0.00 | 0.69 | 0.69 | 69 | 1014.5 |
| 20260903185520 | 27 | 229 | 1.6 | 3.2 | 0.00 | 0.69 | 0.69 | 71 | 1014.5 |
| 20260903185015 | 27 | 286 | 4.8 | 8.0 | 0.00 | 0.69 | 0.69 | 72 | 1014.7 |
| 20260903184506 | 27 | 288 | 4.8 | 4.8 | 0.00 | 0.69 | 0.69 | 72 | 1014.6 |
| 20260903184006 | 27 | 242 | 4.8 | 4.8 | 0.00 | 0.69 | 0.69 | 72 | 1014.6 |
| 20260903183500 | 27 | 347 | 3.2 | 3.2 | 0.00 | 0.69 | 0.69 | 74 | 1014.9 |
| 20260903182959 | 27 | 242 | 3.2 | 3.2 | 0.00 | 0.69 | 0.69 | 75 | 1014.7 |
| 20260903182458 | 27 | 225 | 1.6 | 3.2 | 0.00 | 0.69 | 0.69 | 77 | 1014.9 |
| 20260903181954 | 26 | 196 | 1.6 | 3.2 | 0.00 | 0.69 | 0.69 | 76 | 1015.0 |
| 20260903181447 | 26 | 303 | 4.8 | 4.8 | 0.00 | 0.69 | 0.69 | 75 | 1014.8 |
| 20260903180942 | 26 | 271 | 4.8 | 4.8 | 0.00 | 0.69 | 0.69 | 77 | 1014.9 |
| 20260903180437 | 26 | 194 | 1.6 | 1.6 | 0.00 | 0.69 | 0.69 | 79 | 1014.9 |
| 20260903175936 | 26 | 195 | 3.2 | 3.2 | 0.00 | 0.69 | 0.69 | 77 | 1014.9 |
| 20260903175431 | 26 | 129 | 1.6 | 1.6 | 0.00 | 0.69 | 0.69 | 77 | 1014.9 |
| 20260903174925 | 26 | 158 | 1.6 | 1.6 | 0.00 | 0.69 | 0.69 | 75 | 1015.1 |
| 20260903174421 | 27 | 214 | 3.2 | 3.2 | 0.00 | 0.69 | 0.69 | 74 | 1015.0 |
| 20260903173920 | 27 | 202 | 1.6 | 1.6 | 0.00 | 0.69 | 0.69 | 73 | 1014.9 |
| 20260903173420 | 27 | 142 | 3.2 | 4.8 | 0.00 | 0.69 | 0.69 | 76 | 1014.9 |
| 20260903172916 | 26 | 253 | 3.2 | 4.8 | 0.00 | 0.69 | 0.69 | 75 | 1015.1 |
| 20260903172416 | 27 | 311 | 6.4 | 8.0 | 0.00 | 0.69 | 0.69 | 75 | 1015.1 |
| 20260903171912 | 26 | 261 | 8.0 | 9.7 | 0.00 | 0.69 | 0.69 | 77 | 1015.1 |
| 20260903171407 | 26 | 252 | 1.6 | 3.2 | 0.00 | 0.69 | 0.69 | 78 | 1015.1 |
| 20260903170901 | 26 | 283 | 3.2 | 4.8 | 0.00 | 0.69 | 0.69 | 78 | 1015.0 |
| 20260903170356 | 26 | 221 | 3.2 | 3.2 | 0.00 | 0.69 | 0.69 | 77 | 1015.3 |
| 20260903165855 | 26 | 206 | 1.6 | 1.6 | 0.00 | 0.69 | 0.69 | 78 | 1015.3 |
| 20260903165349 | 26 | 199 | 1.6 | 1.6 | 0.00 | 0.69 | 0.69 | 78 | 1015.0 |
| 20260903164844 | 25 | 280 | 3.2 | 3.2 | 0.00 | 0.69 | 0.69 | 79 | 1015.1 |
| 20260903164339 | 25 | 315 | 3.2 | 3.2 | 0.00 | 0.69 | 0.69 | 79 | 1015.2 |
| 20260903163838 | 25 | 257 | 3.2 | 3.2 | 0.00 | 0.69 | 0.69 | 80 | 1015.2 |
| 20260903163335 | 25 | 291 | 8.0 | 9.7 | 0.00 | 0.69 | 0.69 | 81 | 1015.4 |
| 20260903162831 | 25 | 288 | 4.8 | 4.8 | 0.00 | 0.69 | 0.69 | 81 | 1015.2 |
| 20260903162327 | 26 | 294 | 4.8 | 8.0 | 0.00 | 0.69 | 0.69 | 79 | 1015.5 |
| 20260903161823 | 25 | 226 | 4.8 | 8.0 | 0.00 | 0.69 | 0.69 | 82 | 1015.6 |
| 20260903161318 | 25 | 231 | 1.6 | 3.2 | 0.00 | 0.69 | 0.69 | 81 | 1015.6 |
| 20260903160814 | 26 | 206 | 3.2 | 3.2 | 0.00 | 0.69 | 0.69 | 82 | 1015.6 |
| 20260903160312 | 26 | 194 | 1.6 | 1.6 | 0.00 | 0.69 | 0.69 | 82 | 1015.8 |
| 20260903155811 | 25 | 194 | 3.2 | 3.2 | 0.00 | 0.69 | 0.69 | 82 | 1015.7 |
| 20260903155307 | 25 | 187 | 3.2 | 3.2 | 0.00 | 0.69 | 0.69 | 84 | 1015.9 |
| 20260903154801 | 25 | 210 | 4.8 | 4.8 | 0.00 | 0.69 | 0.69 | 85 | 1015.9 |
| 20260903154258 | 24 | 213 | 1.6 | 1.6 | 0.00 | 0.69 | 0.69 | 85 | 1016.2 |
| 20260903153753 | 24 | 189 | 0.0 | 1.6 | 0.00 | 0.69 | 0.69 | 88 | 1016.0 |
| 20260903153249 | 23 | 217 | 3.2 | 3.2 | 0.00 | 0.69 | 0.69 | 89 | 1016.2 |
| 20260903152745 | 23 | 186 | 0.0 | 1.6 | 0.00 | 0.69 | 0.69 | 90 | 1016.1 |
| 20260903152241 | 23 | 168 | 0.0 | 0.0 | 0.00 | 0.69 | 0.69 | 90 | 1016.1 |
| 20260903151740 | 23 | 263 | 3.2 | 3.2 | 0.00 | 0.69 | 0.69 | 90 | 1016.2 |
| 20260903151236 | 23 | 192 | 0.0 | 1.6 | 0.00 | 0.69 | 0.69 | 90 | 1016.1 |
| 20260903150731 | 22 | 199 | 1.6 | 3.2 | 0.00 | 0.69 | 0.69 | 90 | 1016.0 |
| 20260903150225 | 22 | 209 | 1.6 | 3.2 | 0.00 | 0.69 | 0.69 | 90 | 1016.4 |
| 20260903145725 | 23 | 254 | 3.2 | 4.8 | 0.00 | 0.69 | 0.69 | 90 | 1016.1 |
| 20260903145221 | 23 | 169 | 0.0 | 0.0 | 0.00 | 0.69 | 0.69 | 91 | 1015.8 |
| 20260903144719 | 23 | 181 | 0.0 | 0.0 | 0.00 | 0.69 | 0.69 | 90 | 1015.9 |
| 20260903144216 | 23 | 194 | 1.6 | 1.6 | 0.00 | 0.69 | 0.69 | 91 | 1015.9 |
| 20260903143711 | 22 | 227 | 3.2 | 3.2 | 0.00 | 0.69 | 0.69 | 91 | 1016.1 |
| 20260903143207 | 23 | 207 | 1.6 | 1.6 | 0.00 | 0.69 | 0.69 | 92 | 1016.0 |
| 20260903142702 | 22 | 198 | 4.8 | 4.8 | 0.00 | 0.69 | 0.69 | 92 | 1016.0 |
| 20260903142159 | 22 | 197 | 1.6 | 1.6 | 0.00 | 0.69 | 0.69 | 95 | 1016.0 |
| 20260903141654 | 22 | 216 | 4.8 | 4.8 | 0.00 | 0.69 | 0.69 | 95 | 1016.1 |
| 20260903141149 | 21 | 281 | 4.8 | 4.8 | 0.00 | 0.69 | 0.69 | 95 | 1016.1 |
| 20260903140645 | 21 | 192 | 0.0 | 1.6 | 0.00 | 0.69 | 0.69 | 95 | 1015.9 |
| 20260903140140 | 21 | 186 | 3.2 | 3.2 | 0.00 | 0.69 | 0.69 | 95 | 1015.9 |
| 20260903135636 | 21 | 213 | 4.8 | 4.8 | 0.00 | 0.69 | 0.69 | 95 | 1015.9 |
| 20260903135130 | 21 | 179 | 1.6 | 1.6 | 0.00 | 0.69 | 0.69 | 95 | 1015.9 |
| 20260903134629 | 21 | 187 | 0.0 | 0.0 | 0.00 | 0.69 | 0.69 | 95 | 1015.6 |
| 20260903134125 | 21 | 187 | 1.6 | 1.6 | 0.00 | 0.69 | 0.69 | 95 | 1015.5 |
| 20260903133623 | 20 | 167 | 0.0 | 0.0 | 0.00 | 0.69 | 0.69 | 95 | 1015.8 |
| 20260903133119 | 20 | 195 | 0.0 | 1.6 | 0.00 | 0.69 | 0.69 | 95 | 1015.8 |
| 20260903132614 | 21 | 172 | 1.6 | 1.6 | 0.00 | 0.69 | 0.69 | 95 | 1016.0 |
| 20260903132113 | 20 | 176 | 0.0 | 0.0 | 0.00 | 0.69 | 0.69 | 95 | 1015.9 |
| 20260903131608 | 20 | 177 | 0.0 | 0.0 | 0.00 | 0.69 | 0.69 | 95 | 1015.9 |
| 20260903131107 | 20 | 177 | 0.0 | 1.6 | 0.00 | 0.69 | 0.69 | 95 | 1016.1 |
| 20260903130603 | 20 | 356 | 4.8 | 4.8 | 0.00 | 0.69 | 0.69 | 95 | 1016.0 |
| 20260903130056 | 20 | 153 | 0.0 | 0.0 | 0.00 | 0.69 | 0.69 | 95 | 1016.0 |
| 20260903125554 | 20 | 156 | 0.0 | 0.0 | 0.00 | 0.69 | 0.69 | 95 | 1016.2 |
| 20260903113437 | 18 | 167 | 0.0 | 0.0 | 0.00 | 0.69 | 0.69 | 95 | 1015.8 |
| 20260903112932 | 18 | 167 | 0.0 | 0.0 | 0.00 | 0.69 | 0.69 | 95 | 1015.8 |
| 20260903112428 | 18 | 177 | 0.0 | 0.0 | 0.00 | 0.69 | 0.69 | 95 | 1015.8 |
| 20260903111927 | 18 | 130 | 0.0 | 0.0 | 0.00 | 0.69 | 0.69 | 95 | 1015.7 |
| 20260903111426 | 18 | 158 | 0.0 | 0.0 | 0.00 | 0.69 | 0.69 | 95 | 1015.6 |
| 20260903110923 | 18 | 164 | 0.0 | 0.0 | 0.00 | 0.69 | 0.69 | 95 | 1015.6 |
| 20260903110419 | 18 | 200 | 1.6 | 3.2 | 0.00 | 0.69 | 0.69 | 95 | 1015.5 |
| 20260903105914 | 18 | 133 | 0.0 | 0.0 | 0.00 | 0.69 | 0.69 | 95 | 1015.6 |
| 20260903105409 | 18 | 151 | 0.0 | 0.0 | 0.00 | 0.69 | 0.69 | 95 | 1015.6 |
| 20260903104908 | 18 | 161 | 0.0 | 0.0 | 0.00 | 0.69 | 0.69 | 95 | 1015.5 |
| 20260903104402 | 18 | 126 | 0.0 | 0.0 | 0.00 | 0.69 | 0.69 | 95 | 1015.6 |
| 20260903103900 | 18 | 139 | 0.0 | 0.0 | 0.00 | 0.69 | 0.69 | 95 | 1015.8 |
| 20260903103355 | 18 | 163 | 0.0 | 0.0 | 0.00 | 0.69 | 0.69 | 95 | 1015.6 |
| 20260903102851 | 18 | 168 | 0.0 | 0.0 | 0.00 | 0.69 | 0.69 | 95 | 1015.5 |
| 20260903102350 | 18 | 135 | 0.0 | 0.0 | 0.00 | 0.69 | 0.69 | 95 | 1015.7 |
| 20260903101845 | 18 | 139 | 0.0 | 0.0 | 0.00 | 0.69 | 0.69 | 95 | 1015.7 |
| 20260903101340 | 18 | 125 | 0.0 | 0.0 | 0.00 | 0.69 | 0.69 | 95 | 1015.5 |
| 20260903100835 | 18 | 137 | 0.0 | 1.6 | 0.00 | 0.69 | 0.69 | 95 | 1015.7 |
| 20260903100329 | 18 | 141 | 0.0 | 0.0 | 0.00 | 0.69 | 0.69 | 95 | 1015.8 |
| 20260903095821 | 18 | 141 | 0.0 | 0.0 | 0.00 | 0.69 | 0.69 | 95 | 1015.8 |
| 20260903095315 | 18 | 138 | 0.0 | 0.0 | 0.00 | 0.69 | 0.69 | 95 | 1015.8 |
| 20260903094811 | 18 | 104 | 0.0 | 0.0 | 0.00 | 0.69 | 0.69 | 95 | 1015.6 |
| 20260903094305 | 18 | 99 | 0.0 | 0.0 | 0.00 | 0.69 | 0.69 | 95 | 1015.6 |
| 20260903093801 | 18 | 137 | 0.0 | 0.0 | 0.00 | 0.69 | 0.69 | 95 | 1015.8 |
| 20260903093255 | 18 | 117 | 1.6 | 1.6 | 0.00 | 0.69 | 0.69 | 95 | 1015.5 |